Powrót do katalogu

SL-16 DEB

AktywnySSO
NORAD 25402·DEBRIS·🇷🇺 Russia

Wystrzelony Jul 10, 1998 z Baikonur Cosmodrome

Loading…

Następne Przeloty (najbliższe 24 godziny)

TLE

ŚwieżeSource: Space-Track

Epoka: Sep 14, 2026, 15:46 UTC

1 25402U 98043J   26257.65750176 -.00000032  00000-0  79520-5 0  9990
2 25402  99.2215 318.0876 0153860 115.2976  45.5628 13.96981606435146

Śledź SL-16 DEB w czasie rzeczywistym z AllMySat

Download on the App Store